GFSNIL_sfc_thetae_000.txt.gz
Theta_e
294 294 295 295 294 294 293 292 292 292 291 290 293 291 292 290 287 286 285 284 283 284
292 292 292 292 292 292 292 293 292 290 292 292 291 290 289 287 288 286 285 285 285 283
289 289 290 290 289 290 291 292 293 293 291 291 290 290 289 286 286 286 285 285 283 282
288 289 289 288 289 289 290 291 291 291 291 288 288 288 285 284 284 284 283 281 281 281
288 288 287 287 287 288 288 288 289 289 289 288 287 285 283 283 283 282 281 281 280 280
287 287 287 286 286 287 287 287 288 289 287 286 284 284 283 283 282 280 280 280 280 279
287 287 287 286 286 287 288 288 287 286 286 284 284 283 283 281 280 280 280 280 280 279
287 287 287 287 287 287 287 289 286 286 283 282 283 282 281 280 280 279 279 279 280 280
288 288 287 287 287 287 290 286 283 280 281 281 282 285 286 285 281 280 279 280 280 280
287 287 286 286 286 286 285 284 283 281 281 280 282 286 285 283 279 278 278 277 276 277
286 286 285 285 285 285 285 284 279 280 280 280 281 283 283 281 277 277 276 276 276 275
286 285 285 284 284 284 284 281 281 281 279 278 278 281 281 279 276 275 275 276 276 276
285 284 284 283 282 282 280 280 280 279 277 278 276 279 279 278 274 271 274 275 276 277
284 283 283 282 281 279 279 278 277 277 276 276 277 276 278 278 273 273 275 274 274 275

GFSNIL_sfc_thetae_003.txt.gz
Theta_e
296 295 295 295 296 296 297 298 301 302 300 299 298 298 297 296 295 295 293 292 292 291
295 295 295 295 296 296 298 299 300 299 299 298 298 297 297 295 294 294 293 293 293 292
295 295 296 296 295 296 298 299 299 298 297 297 298 296 295 294 293 292 293 292 292 290
295 295 296 295 295 296 297 298 297 297 297 296 295 294 294 293 292 291 292 291 289 288
295 295 294 294 294 295 295 295 295 295 295 295 294 293 292 291 291 290 289 289 287 287
294 294 294 294 294 294 294 294 295 295 293 292 292 291 290 290 289 288 288 287 286 286
293 293 293 293 293 294 294 294 294 293 293 292 289 289 289 288 288 287 286 286 286 285
293 294 293 293 293 293 294 294 293 292 288 288 288 287 288 287 287 287 286 286 285 284
293 293 293 292 292 293 293 294 290 290 288 287 286 286 286 286 285 283 282 281 281 281
292 292 292 291 291 292 292 293 292 288 287 287 287 284 283 282 282 281 281 280 279 279
291 291 291 291 290 292 292 291 290 287 286 286 284 282 282 281 282 281 280 279 279 278
291 290 290 290 291 291 289 289 288 287 285 283 282 281 280 280 281 279 279 279 279 279
290 290 290 290 290 289 288 285 286 283 282 279 281 279 279 280 280 278 279 279 279 278
290 290 290 290 289 287 286 285 284 282 281 280 280 280 278 279 280 279 278 277 277 278

GFSNIL_sfc_thetae_006.txt.gz
Theta_e
301 300 300 300 299 299 298 300 303 304 306 306 304 300 300 301 299 297 296 294 294 293
301 300 300 300 300 299 300 300 302 305 304 303 301 300 300 299 297 296 295 295 294 293
300 300 300 300 299 299 299 300 301 302 302 300 300 300 299 297 296 294 294 294 293 292
301 300 300 299 298 298 299 299 299 300 300 299 298 298 297 295 294 293 293 293 292 291
300 299 298 298 297 298 298 298 298 298 298 298 297 297 295 293 293 293 292 292 291 290
299 298 297 297 297 297 297 298 298 298 297 296 295 294 293 294 293 292 292 291 290 290
297 297 297 297 297 297 297 297 297 297 297 296 294 293 293 292 292 292 291 291 290 289
297 298 297 297 296 296 297 297 297 295 294 294 293 291 291 291 292 291 289 289 287 287
296 296 296 296 296 296 296 296 296 296 295 294 292 286 285 285 288 288 287 285 285 285
295 295 295 295 295 294 294 295 295 295 294 293 292 284 283 282 287 287 285 284 284 283
294 294 294 294 294 294 295 294 293 293 293 292 289 282 281 281 286 286 285 284 283 283
293 293 293 293 294 295 294 293 293 292 292 290 288 281 280 281 285 284 283 283 283 282
293 293 293 294 294 295 294 292 291 290 290 283 286 280 279 281 285 283 283 283 282 280
293 293 294 294 295 294 293 291 290 287 288 287 285 284 279 279 283 283 281 281 281 281

GFSNIL_sfc_thetae_009.txt.gz
Theta_e
303 302 302 301 301 300 299 300 301 303 304 304 304 303 302 301 301 300 298 296 295 294
303 303 302 301 301 300 300 299 300 302 303 304 303 302 302 300 299 298 297 296 295 294
303 303 303 302 300 299 300 300 300 300 301 301 301 301 300 298 298 296 296 294 294 293
302 302 302 301 299 299 299 299 298 298 299 299 298 299 298 297 297 295 294 294 293 292
302 301 300 299 299 299 298 298 298 298 298 297 297 297 295 295 294 294 293 293 292 291
301 301 299 299 299 298 298 297 298 298 297 296 297 296 296 294 294 293 293 292 291 291
300 300 299 299 298 297 297 297 297 297 297 296 295 294 293 293 293 293 292 292 291 289
300 300 299 298 298 297 297 297 297 296 296 296 295 293 292 292 292 291 290 290 289 288
299 298 298 297 297 296 296 296 296 295 295 295 294 286 285 284 289 289 289 288 287 287
297 296 296 297 296 295 295 296 295 295 294 294 294 286 283 282 286 288 288 287 286 285
296 295 295 295 295 295 296 295 294 294 294 293 289 284 282 282 286 288 287 286 285 285
295 294 294 294 294 295 295 295 294 294 292 292 289 283 282 281 287 287 286 285 285 284
294 294 293 294 294 295 295 294 294 292 292 285 290 282 281 281 286 285 284 285 285 282
294 294 294 294 294 294 294 294 294 291 291 290 288 286 282 281 283 284 283 282 283 284

GFSNIL_sfc_thetae_012.txt.gz
Theta_e
304 302 301 301 299 298 297 297 298 299 300 301 301 299 299 298 297 297 295 292 292 290
303 302 301 301 300 298 298 297 298 298 298 300 299 299 298 297 296 294 294 291 293 290
303 303 302 300 298 297 297 297 297 297 297 297 298 299 297 296 296 293 292 293 291 290
302 302 302 299 298 297 297 297 296 297 296 296 296 296 294 294 293 293 291 293 290 290
303 302 300 299 297 297 296 297 296 296 296 296 296 294 294 292 292 291 290 290 290 289
301 302 299 298 297 297 296 295 295 296 296 295 295 294 294 293 292 291 290 290 288 288
300 301 299 298 297 297 296 295 295 296 296 295 294 293 293 291 290 290 290 289 288 286
300 300 299 298 298 297 296 295 295 295 295 294 294 293 289 289 288 287 286 286 287 285
299 299 297 297 297 297 296 295 294 293 294 293 294 287 286 286 284 286 285 284 284 284
298 296 296 296 296 295 294 294 294 293 292 291 288 287 285 283 282 284 284 283 282 282
297 296 296 295 294 294 294 293 293 292 292 291 288 286 285 283 281 283 284 282 282 281
296 294 294 293 293 293 293 292 292 293 291 290 284 285 284 282 281 283 282 283 283 281
294 293 292 292 292 293 292 292 292 291 290 287 283 284 283 281 280 281 281 281 281 282
294 292 293 292 292 292 291 291 288 287 287 287 285 282 284 282 280 280 280 279 279 280

GFSNIL_sfc_thetae_018.txt.gz
Theta_e
296 295 294 294 293 293 293 293 293 294 295 294 296 296 294 293 292 292 291 290 289 288
296 296 296 294 294 293 293 294 295 293 294 293 293 294 294 292 292 291 290 288 288 287
297 297 296 294 293 295 295 294 294 294 293 292 292 292 292 291 290 289 289 289 288 287
295 296 295 294 295 294 293 294 294 294 292 293 292 292 291 290 289 289 288 288 287 287
298 298 296 294 294 295 294 294 294 292 293 293 292 292 291 290 290 289 288 288 288 288
298 297 296 295 295 293 294 293 293 292 292 292 292 292 291 290 290 289 288 289 287 287
298 298 297 295 293 292 292 291 291 292 292 293 293 292 291 289 287 287 287 286 285 284
299 299 297 293 292 292 292 292 293 292 293 293 293 292 290 288 286 285 284 284 284 283
299 296 294 292 292 292 293 294 292 292 292 291 292 291 290 287 284 284 283 282 282 281
296 294 294 293 292 293 293 293 293 292 291 290 290 290 290 288 282 283 282 281 280 281
294 293 294 293 292 293 292 290 289 289 290 289 289 289 288 286 282 282 282 281 280 279
294 292 292 291 292 291 291 290 288 289 289 288 286 288 287 283 280 282 281 281 281 280
292 292 292 292 291 291 289 289 289 288 288 288 285 287 286 283 280 280 279 280 280 282
294 293 293 292 291 289 287 286 285 285 285 284 283 283 286 286 280 279 279 279 278 279

GFSNIL_sfc_thetae_021.txt.gz
Theta_e
301 299 297 295 294 292 292 291 292 294 296 298 298 294 294 294 291 292 290 289 288 288
299 298 296 295 295 292 292 293 293 295 295 295 295 294 293 293 291 291 290 288 288 287
301 298 296 295 294 294 294 295 295 294 294 294 293 293 293 291 290 289 288 288 287 286
297 296 295 294 295 295 295 295 295 294 293 293 293 292 290 290 288 288 287 288 287 287
298 296 294 295 296 296 294 295 294 294 293 294 293 292 291 289 289 288 287 287 286 286
295 295 295 297 296 294 294 293 293 292 293 293 293 292 290 289 289 287 287 287 287 286
296 296 296 295 295 294 294 292 292 293 293 293 291 291 291 289 288 287 287 287 286 285
298 297 297 295 294 293 293 292 292 292 293 292 291 291 289 288 286 285 285 284 284 283
297 298 296 294 293 293 293 293 292 293 292 291 292 291 291 288 286 285 283 282 283 283
298 295 293 293 293 293 293 294 294 292 291 290 290 290 291 290 284 283 282 282 282 281
294 292 292 293 292 292 292 291 290 290 289 288 288 289 290 288 282 282 282 281 281 279
293 292 293 292 292 292 292 291 289 288 288 288 286 288 289 285 281 280 280 282 281 280
294 293 293 292 292 292 291 289 288 287 286 287 285 287 288 284 279 280 280 280 280 285
295 294 293 293 292 291 288 286 284 283 283 284 284 283 288 287 280 281 279 280 279 279

GFSNIL_sfc_thetae_024.txt.gz
Theta_e
307 305 303 299 296 295 294 293 293 295 297 298 299 297 296 294 293 292 291 289 289 288
307 304 300 301 298 295 294 295 296 296 296 298 298 296 295 295 293 291 290 289 288 287
303 303 301 298 295 295 296 296 295 295 295 294 294 294 294 293 292 290 289 289 287 286
302 301 299 298 296 296 296 296 295 294 294 293 293 293 292 290 289 288 287 287 287 286
299 298 296 296 295 295 296 295 295 294 294 294 293 293 291 289 289 288 286 286 286 286
300 297 296 295 296 296 295 294 294 294 293 293 293 292 291 290 289 287 287 287 286 286
300 298 297 296 294 293 294 293 293 293 293 293 293 292 292 290 288 287 287 286 286 286
298 298 296 293 294 294 294 293 293 293 292 293 292 291 290 289 288 286 285 285 285 284
297 295 294 293 293 291 292 292 291 292 294 293 292 291 291 290 287 286 284 283 282 282
294 293 293 293 292 292 293 294 293 294 292 291 290 290 291 290 286 284 284 283 282 282
292 293 293 293 293 293 294 294 293 292 291 289 289 289 289 289 286 284 283 282 282 281
293 293 293 293 293 293 293 293 292 291 289 289 287 288 288 287 283 281 281 282 282 281
294 294 293 293 293 293 292 291 289 288 288 287 284 287 288 288 280 280 280 280 281 285
295 294 294 293 293 291 290 289 285 284 283 284 284 284 287 288 281 281 280 281 280 281

GFSNIL_sfc_thetae_027.txt.gz
Theta_e
313 312 312 309 305 301 302 302 302 303 303 303 302 304 303 301 302 302 300 300 299 299
316 314 312 309 306 305 302 301 301 302 302 300 303 301 303 302 301 301 301 300 300 299
316 313 312 308 304 304 302 300 300 301 298 301 301 301 300 300 301 300 300 299 298 298
314 313 310 307 305 302 299 298 298 296 299 298 297 299 299 299 299 298 298 297 296 296
313 311 308 306 302 300 298 299 297 298 297 298 297 298 297 297 296 296 295 296 295 295
309 307 307 305 302 300 298 297 298 298 297 297 297 297 297 296 296 295 295 296 295 295
307 306 305 304 301 298 298 296 297 298 298 297 296 296 295 296 296 295 295 295 295 295
306 305 303 299 297 296 296 295 295 295 296 296 295 296 296 295 295 295 295 295 294 294
304 301 299 297 296 295 295 294 296 294 296 298 297 292 291 292 295 294 293 293 294 294
300 298 296 296 295 293 294 295 296 297 297 296 297 291 291 290 293 293 293 293 293 292
298 297 295 295 294 295 296 296 296 295 296 296 293 290 290 289 292 293 293 293 293 292
297 296 296 296 295 295 295 295 296 297 294 291 291 291 289 288 291 291 291 292 291 291
297 297 296 297 296 297 297 296 294 291 291 291 294 290 288 288 291 290 290 290 289 286
298 298 298 296 294 293 292 291 290 291 292 291 291 291 288 288 289 289 289 288 288 288

GFSNIL_sfc_thetae_030.txt.gz
Theta_e
328 326 322 319 315 311 309 306 308 304 306 306 306 306 304 305 304 307 305 304 304 302
328 325 322 318 315 313 310 308 306 304 304 305 305 304 304 304 306 303 305 305 304 301
329 325 320 318 313 309 309 310 307 304 303 302 302 303 304 305 303 304 303 303 302 301
328 322 318 316 315 314 314 310 305 301 300 300 303 304 303 302 302 300 301 302 300 300
325 321 320 319 317 314 313 304 300 300 300 300 303 302 299 300 298 298 298 299 300 298
323 320 317 314 312 308 303 300 301 299 298 299 298 299 299 298 297 298 299 299 299 298
319 319 318 315 311 309 307 302 300 299 299 298 299 299 297 298 299 301 300 298 299 299
317 316 314 313 312 310 306 302 298 297 297 299 298 300 299 299 298 299 298 299 299 299
312 310 309 306 303 300 298 297 296 297 296 299 299 293 292 293 297 298 297 297 298 298
307 306 305 303 300 297 295 296 295 297 298 297 298 293 292 290 294 296 298 297 297 296
305 303 301 300 298 295 297 297 298 298 298 297 298 292 290 290 293 297 296 296 296 295
302 302 301 300 299 300 300 300 298 297 297 296 298 291 291 292 296 294 294 295 295 295
302 301 300 301 300 300 299 298 297 295 293 291 292 293 291 291 294 292 293 294 294 290
300 299 299 298 296 293 293 292 294 295 296 296 295 295 290 289 291 292 292 292 292 294

GFSNIL_sfc_thetae_033.txt.gz
Theta_e
330 330 332 330 327 323 316 310 312 310 311 308 305 307 307 306 304 305 307 307 305 305
332 331 332 330 328 320 314 313 312 312 310 306 306 305 304 303 305 303 308 306 305 304
333 332 331 329 322 316 315 314 312 310 307 306 306 303 303 303 303 305 304 305 304 304
332 330 329 325 320 318 315 313 312 310 308 305 303 301 301 304 304 303 303 303 302 302
328 323 322 320 319 318 317 317 313 310 306 303 301 302 303 301 301 301 300 300 301 301
325 322 320 319 319 317 315 311 307 303 301 301 301 301 302 301 300 300 300 300 301 301
325 321 320 319 316 312 307 303 301 301 300 299 300 300 299 299 300 299 299 301 302 300
321 321 318 317 315 312 309 306 303 299 298 298 299 299 299 300 299 298 298 300 300 300
317 315 314 313 310 308 307 304 301 299 300 298 298 294 294 297 299 297 297 297 298 300
311 309 308 307 304 303 301 300 298 298 297 297 299 293 293 291 295 294 294 295 296 297
308 306 305 304 302 300 299 298 299 299 299 300 299 293 292 290 293 293 294 297 297 296
306 304 303 302 302 302 301 301 300 300 299 298 298 292 291 291 294 295 295 295 295 295
305 304 302 300 300 300 300 299 300 298 297 293 296 293 291 292 293 292 293 293 294 291
302 301 300 300 299 298 298 298 297 296 297 296 295 294 289 288 291 287 285 287 289 292

GFSNIL_sfc_thetae_036.txt.gz
Theta_e
327 327 327 326 325 324 321 317 313 312 311 310 308 306 306 305 304 304 303 303 303 304
330 327 325 326 326 323 318 313 312 311 310 308 306 305 304 303 303 303 303 303 304 301
327 327 327 326 326 320 315 313 312 311 310 306 304 304 304 302 303 303 302 302 301 301
325 323 322 327 324 317 315 314 312 310 307 305 304 304 302 302 302 302 301 300 300 300
328 329 325 322 320 318 316 314 311 309 307 305 303 303 301 301 302 300 299 300 299 299
325 322 321 319 317 316 314 312 310 307 305 302 301 300 300 301 300 299 299 299 298 298
322 321 319 317 314 307 304 302 301 302 302 301 301 300 300 301 299 298 299 299 298 298
320 320 318 315 312 308 305 302 301 300 300 299 299 300 298 299 298 297 296 297 299 299
319 317 315 312 310 308 305 304 300 299 297 297 298 293 296 297 297 296 296 294 296 297
312 309 308 306 304 302 301 300 297 297 297 297 296 294 293 292 294 293 292 293 294 295
308 306 304 302 299 298 297 296 296 296 297 296 297 293 292 290 291 292 293 293 293 293
305 303 301 300 299 299 298 298 298 298 297 297 294 292 291 291 292 293 292 292 291 290
304 303 301 300 299 299 299 298 298 296 295 293 295 292 290 289 287 285 283 285 287 287
301 300 299 299 299 297 296 296 293 293 294 295 289 286 286 285 282 280 280 281 281 282

GFSNIL_sfc_thetae_039.txt.gz
Theta_e
322 320 319 319 319 320 322 322 316 312 311 309 311 308 306 305 304 304 304 303 304 305
323 322 321 322 323 323 323 316 313 311 309 307 305 305 303 303 304 303 303 303 303 303
324 323 323 322 318 319 315 315 312 312 311 309 305 303 304 303 303 303 303 303 302 301
324 325 325 323 321 318 314 313 312 313 310 304 303 304 303 302 303 302 301 301 300 300
322 322 319 320 317 315 312 313 313 311 308 306 304 303 302 301 301 300 300 299 299 299
323 324 320 318 317 314 313 313 310 308 306 304 303 302 301 301 301 300 300 299 298 298
318 317 316 315 313 310 309 308 308 306 304 303 301 301 300 300 299 298 299 299 298 297
316 316 313 311 308 305 305 303 302 301 301 301 300 300 300 300 299 297 297 297 297 298
316 315 313 310 307 304 302 301 300 299 299 298 299 294 295 297 297 296 295 295 294 294
308 306 304 305 305 303 300 296 294 294 293 293 293 293 293 293 294 292 290 289 290 294
304 302 299 297 295 294 294 293 293 293 294 293 293 292 292 290 290 289 291 293 293 289
301 298 297 295 294 293 293 293 292 294 293 293 292 292 290 290 290 292 288 287 286 285
300 298 297 295 294 294 294 294 296 294 295 292 292 290 290 288 282 281 279 281 283 284
298 297 296 296 294 293 292 292 289 290 290 287 284 284 285 283 279 279 279 279 278 279

GFSNIL_sfc_thetae_042.txt.gz
Theta_e
318 319 319 318 315 320 321 321 322 322 320 318 312 310 311 308 307 305 305 305 305 305
319 320 320 318 317 319 322 322 320 318 316 313 312 310 308 307 305 305 305 305 305 304
320 321 322 319 319 319 315 316 315 313 312 309 309 307 307 306 304 304 304 304 303 302
321 321 321 319 319 317 317 316 314 311 309 308 307 306 305 304 304 303 302 302 302 301
320 319 320 320 319 318 318 318 315 312 312 308 306 305 303 302 303 302 301 300 299 299
322 321 322 322 320 321 320 318 313 312 310 307 306 304 302 302 301 301 300 300 299 298
320 322 323 323 319 317 314 312 311 309 307 305 303 302 302 301 300 300 299 299 299 298
320 322 319 315 313 311 311 309 308 306 304 302 301 301 300 300 299 298 298 298 297 297
317 316 313 310 307 305 305 304 302 301 300 299 300 294 295 298 298 297 296 295 295 295
313 311 309 307 305 303 300 299 298 298 298 297 298 293 294 294 296 294 293 291 292 293
307 306 305 302 299 295 296 295 292 292 293 293 293 292 292 290 290 289 290 291 289 287
302 300 298 295 294 293 293 292 292 293 292 291 290 291 290 289 288 287 285 286 286 284
298 296 294 293 292 292 291 292 293 291 291 290 288 290 290 290 286 282 281 281 281 282
296 295 294 293 293 292 291 290 288 287 286 285 285 285 285 284 280 279 279 278 278 278

GFSNIL_sfc_thetae_045.txt.gz
Theta_e
312 311 311 312 314 314 314 316 316 318 319 320 318 314 313 313 311 309 307 305 306 306
313 312 313 314 315 315 316 318 317 317 319 320 318 316 313 312 309 308 307 306 307 306
314 315 315 316 316 315 315 316 315 315 315 315 314 313 312 310 308 307 306 306 306 305
316 316 317 318 319 316 315 316 316 316 314 312 312 308 308 306 304 305 304 304 304 303
318 319 319 319 319 318 318 318 316 315 312 310 308 307 307 304 304 304 303 303 302 300
319 319 319 320 320 319 320 319 319 319 314 311 310 306 305 305 303 303 302 301 300 299
319 320 320 320 320 320 320 319 318 314 312 310 307 306 304 303 302 301 301 300 299 299
320 321 320 320 320 320 319 318 313 311 308 306 304 303 302 301 300 299 298 298 298 297
316 317 317 316 313 311 309 308 309 306 303 302 303 298 295 298 299 298 297 296 295 295
315 315 312 310 308 306 304 302 301 301 301 300 298 294 294 294 297 296 295 294 293 292
312 308 306 305 303 300 300 299 298 297 298 298 297 292 292 291 293 292 292 291 290 287
307 305 303 300 298 296 296 295 294 295 295 294 293 291 290 290 290 287 285 285 285 284
304 302 299 295 294 291 292 291 292 289 288 289 289 290 290 288 284 282 281 281 281 282
299 297 294 292 292 290 290 289 288 285 285 286 286 286 287 287 284 282 280 279 279 278

GFSNIL_sfc_thetae_048.txt.gz
Theta_e
309 309 309 308 309 309 310 310 311 313 314 314 314 313 312 311 313 311 310 309 308 308
310 309 309 309 308 310 311 313 313 314 313 313 314 314 313 313 312 312 311 310 309 307
310 310 310 309 310 312 313 313 314 314 315 316 317 316 316 316 316 314 312 309 307 306
311 311 311 312 314 315 315 315 314 315 316 316 316 316 315 314 309 309 310 308 307 305
312 314 313 313 315 315 314 316 316 316 316 317 316 312 310 308 308 308 306 305 305 303
312 313 314 314 315 315 315 317 317 317 317 315 310 308 308 307 306 305 305 303 303 301
312 313 314 315 315 316 317 317 318 318 318 317 310 307 306 306 304 303 302 302 302 301
314 315 315 316 316 318 318 318 319 318 315 310 309 306 305 304 303 301 300 300 299 299
315 316 316 316 317 318 318 318 318 314 309 307 306 298 298 301 301 300 298 296 296 295
316 315 316 318 318 317 315 311 309 306 305 304 303 295 296 297 299 297 296 295 293 292
314 315 315 312 310 305 305 306 302 301 301 299 297 294 293 292 295 293 293 293 291 288
313 308 307 305 303 301 301 300 299 298 297 296 293 291 290 291 289 286 285 285 286 285
307 305 303 299 297 296 295 293 292 290 291 291 290 290 290 288 286 283 281 282 282 283
302 299 296 294 294 293 290 288 286 285 285 285 287 287 288 288 285 283 281 280 279 280

GFSNIL_sfc_thetae_051.txt.gz
Theta_e
318 317 317 318 317 318 317 318 319 320 321 322 322 323 324 323 323 322 321 319 317 312
317 317 316 317 317 318 318 318 319 320 320 321 322 323 323 322 322 321 320 318 316 312
317 317 318 317 316 316 318 318 319 320 321 321 322 322 322 322 322 320 317 317 313 312
317 317 317 316 316 316 316 316 317 319 320 320 321 322 322 322 321 315 316 316 313 312
317 316 316 315 317 318 317 315 316 317 319 320 320 322 320 319 315 314 313 312 310 310
316 316 314 315 317 318 318 318 319 318 318 319 318 320 319 318 313 311 313 313 310 307
315 315 316 317 317 318 318 318 319 320 320 320 319 319 316 315 316 314 312 311 307 305
315 316 317 318 319 319 319 319 320 320 321 321 320 316 314 312 310 309 306 305 303 303
316 316 316 317 318 319 319 319 320 320 320 319 317 304 301 306 309 307 302 299 297 297
317 317 318 318 317 318 319 320 320 320 318 315 313 298 298 296 303 302 300 296 294 293
318 317 318 318 318 319 319 317 315 311 308 305 302 295 294 294 298 296 296 295 293 290
319 318 318 317 310 306 304 301 300 300 300 298 295 292 291 292 291 288 288 288 288 287
317 312 309 304 301 298 297 294 292 291 292 291 291 290 290 290 287 285 283 284 284 284
309 305 300 296 296 293 290 288 286 285 286 287 288 289 289 289 287 284 282 281 280 281

GFSNIL_sfc_thetae_054.txt.gz
Theta_e
323 324 322 322 321 320 320 321 321 323 324 324 324 325 326 325 326 327 327 327 326 325
325 325 324 324 325 323 324 323 325 324 323 323 323 324 325 325 324 326 328 327 327 326
325 326 326 326 325 325 326 326 325 324 324 324 325 325 324 325 325 325 327 326 326 325
325 325 326 326 326 325 326 325 324 325 324 324 325 325 325 325 325 325 325 326 323 322
324 324 324 325 325 327 326 325 325 325 324 323 324 325 324 323 323 323 323 323 321 317
323 324 324 324 324 323 323 323 323 322 322 320 322 321 322 320 323 323 322 323 318 314
323 324 324 324 323 324 323 321 322 322 322 322 321 321 321 321 322 322 322 322 319 319
324 323 322 322 322 322 322 322 321 322 322 322 322 322 322 322 322 321 319 317 317 318
322 322 322 321 322 321 322 321 322 321 321 322 322 307 303 312 320 318 315 308 306 305
321 321 321 321 321 320 321 322 321 321 321 321 323 299 300 300 318 312 309 303 299 297
321 320 321 320 320 320 321 322 322 321 321 320 320 299 299 296 305 301 300 298 296 292
322 320 321 320 321 322 321 320 314 312 310 308 301 295 293 296 295 292 290 291 291 289
322 322 321 322 321 311 306 296 294 292 293 292 292 291 292 292 289 286 284 284 285 286
322 321 317 309 302 296 292 289 287 286 287 288 289 289 289 289 287 285 283 282 282 283

GFSNIL_sfc_thetae_060.txt.gz
Theta_e
320 319 318 316 316 315 315 318 321 321 321 322 323 324 324 323 323 322 321 321 320 320
321 319 318 318 318 317 317 318 321 323 322 322 322 323 324 323 321 321 321 321 321 320
320 321 320 320 319 319 318 318 319 321 323 322 322 323 324 323 322 321 321 321 320 320
319 320 321 320 321 320 320 319 319 319 320 321 322 323 322 321 321 320 320 319 319 320
320 320 320 320 321 322 321 322 320 319 320 320 320 321 320 320 320 319 318 318 318 318
321 321 321 320 322 322 322 323 322 321 319 319 320 319 320 320 319 318 318 318 317 317
323 322 322 323 323 323 324 322 323 323 321 320 320 320 320 319 319 318 318 319 318 319
324 325 325 324 324 324 324 325 324 323 322 322 321 320 319 319 318 318 318 318 319 319
323 324 324 324 324 325 324 324 325 324 323 322 322 310 303 312 319 318 317 316 317 317
325 323 323 324 324 323 323 324 323 322 322 321 322 304 302 300 317 318 317 316 315 314
325 325 324 323 323 322 323 322 322 321 321 321 320 303 301 299 312 316 315 313 313 316
325 324 324 323 322 323 322 321 321 321 320 319 318 294 296 297 305 296 290 291 292 292
321 324 323 323 322 322 322 320 313 296 295 292 295 292 293 298 293 287 285 285 286 286
311 320 322 322 321 320 306 294 289 287 287 287 289 290 292 292 288 286 284 284 284 285

GFSNIL_sfc_thetae_063.txt.gz
Theta_e
317 316 314 314 315 315 315 316 320 320 318 318 319 320 320 320 320 320 320 318 317 318
319 318 315 314 314 315 315 316 317 320 319 318 319 320 321 320 319 319 319 317 318 317
319 320 319 316 314 314 314 315 315 319 319 319 319 320 321 321 321 319 318 319 318 318
319 319 319 317 316 315 315 314 314 317 319 320 319 319 320 321 321 319 319 319 318 318
319 319 319 319 318 318 316 316 315 315 317 319 319 320 318 318 320 319 318 318 317 317
317 317 318 319 320 319 319 317 317 316 315 315 316 318 319 319 319 319 319 318 317 317
317 316 317 318 319 319 319 318 318 318 317 317 317 317 317 318 318 319 319 318 318 317
318 319 318 317 318 320 319 319 319 319 318 318 317 317 317 317 317 316 316 317 317 317
321 320 319 319 319 319 319 319 320 318 319 319 319 308 302 311 316 316 315 315 315 316
321 320 321 321 320 320 320 321 320 320 320 319 320 304 301 300 315 316 315 315 315 315
314 317 320 321 321 321 321 321 320 320 320 321 321 305 302 299 311 316 317 317 316 316
309 308 308 317 319 321 320 320 320 321 321 320 320 300 300 299 311 312 293 291 293 296
304 302 302 304 309 320 320 319 319 303 295 292 298 291 295 299 301 289 286 286 287 288
296 295 297 298 298 313 310 295 291 289 289 289 290 291 294 295 294 289 285 284 284 285

GFSNIL_sfc_thetae_066.txt.gz
Theta_e
316 314 313 314 315 314 316 316 317 317 317 318 317 316 317 318 318 316 316 315 316 316
315 314 313 312 314 314 313 317 318 318 316 317 317 318 317 315 316 318 318 317 317 317
317 316 315 312 312 314 315 313 315 319 318 317 317 318 317 317 317 317 318 318 318 318
318 319 318 316 313 313 314 312 312 315 318 318 317 316 316 317 318 317 317 318 317 317
318 319 319 318 317 315 313 313 313 312 316 317 318 317 315 314 316 317 317 317 317 316
317 317 317 318 318 317 316 314 313 313 312 314 317 317 317 316 316 316 317 318 317 316
315 317 317 317 318 319 319 317 316 315 314 313 313 315 317 317 316 316 316 317 318 318
317 317 317 317 317 318 318 318 318 317 317 315 314 313 313 314 314 315 316 316 317 318
319 319 317 317 316 316 317 317 318 317 317 317 316 307 302 308 314 314 314 314 316 317
305 310 317 319 318 316 316 317 317 317 318 317 317 304 301 299 313 315 314 314 314 314
301 304 304 306 310 318 318 317 316 316 317 317 317 304 300 298 311 313 314 315 314 315
297 297 298 299 301 303 304 316 318 318 318 317 317 305 300 300 313 313 313 314 306 306
291 291 292 294 295 298 299 301 312 319 318 312 317 300 297 301 314 313 309 290 289 290
287 287 289 289 292 295 295 295 295 293 289 290 289 290 293 296 307 304 288 286 285 286

GFSNIL_sfc_thetae_069.txt.gz
Theta_e
315 316 315 316 317 317 317 317 316 317 318 318 317 317 318 317 316 315 313 313 313 312
316 312 312 314 315 316 318 317 315 315 316 318 318 317 316 317 316 316 314 314 315 315
316 316 312 311 311 312 312 314 316 316 315 316 317 317 316 315 315 316 316 315 313 313
315 314 313 311 311 312 312 312 312 317 317 315 316 316 316 315 315 314 315 316 315 315
315 316 315 314 314 312 312 312 312 312 316 318 316 316 315 316 317 316 314 314 314 314
315 315 315 316 317 316 314 313 312 313 312 314 316 317 316 315 314 315 315 316 315 315
315 315 316 316 316 316 316 315 314 313 312 312 313 315 316 315 314 314 313 314 315 315
316 317 318 317 316 317 316 316 316 315 314 314 312 312 312 314 315 314 314 314 314 315
305 311 314 317 317 317 317 317 317 315 315 315 315 306 301 305 311 312 313 313 314 315
299 301 302 303 305 313 316 317 317 317 317 316 316 303 301 299 311 312 312 312 312 312
293 294 295 297 299 299 302 303 309 315 317 317 317 304 301 301 311 313 313 313 313 312
289 289 291 292 292 294 297 299 300 303 304 312 316 304 299 300 311 312 313 314 314 313
285 286 287 288 288 290 293 295 296 294 290 288 288 289 289 292 309 311 311 312 310 288
283 285 285 285 286 287 289 290 288 285 284 284 284 286 288 290 294 303 302 289 285 285

GFSNIL_sfc_thetae_072.txt.gz
Theta_e
312 314 317 317 318 318 318 318 318 318 318 318 319 319 318 317 316 315 313 312 313 312
312 313 315 317 317 318 319 319 317 317 318 317 318 318 318 318 317 317 316 314 313 313
312 311 311 314 314 316 317 317 315 315 317 317 317 317 317 317 317 316 316 316 314 313
312 311 310 310 311 314 314 315 314 314 315 315 316 317 316 316 315 315 315 316 314 313
315 312 310 310 310 311 313 312 313 316 314 314 315 316 316 315 315 313 313 314 314 313
315 314 312 312 312 311 311 311 311 311 314 315 315 314 315 315 315 313 313 313 312 313
315 316 316 316 315 314 313 312 313 313 313 313 314 315 315 314 314 315 315 316 316 315
309 317 317 317 317 317 316 315 314 313 312 313 313 313 313 314 314 313 313 313 313 314
300 303 303 304 306 314 317 317 316 315 314 313 313 303 300 306 312 313 313 313 313 314
294 295 296 299 300 299 301 303 305 311 315 316 316 302 300 298 310 312 312 312 312 312
289 290 292 292 292 293 296 299 300 301 301 299 296 288 289 290 305 311 313 313 313 312
286 287 288 288 289 291 292 295 295 291 290 287 288 287 288 289 295 307 310 313 314 313
285 285 285 286 287 289 291 291 290 286 285 284 284 286 287 288 293 295 301 305 287 286
283 284 284 285 286 287 287 286 284 283 283 283 283 284 285 286 288 289 285 284 283 284

GFSNIL_sfc_thetae_075.txt.gz
Theta_e
320 319 319 320 320 320 320 320 320 321 320 320 320 319 318 317 315 316 318 319 320 319
318 318 319 320 321 321 321 320 320 321 319 320 320 319 319 317 316 315 315 317 318 316
321 320 319 320 319 319 320 321 320 321 319 318 319 319 319 318 318 316 316 316 315 315
320 320 320 318 318 319 319 318 317 319 318 318 319 319 318 318 318 317 317 317 317 316
319 319 318 319 320 321 319 319 317 317 318 319 320 321 320 319 317 316 316 317 316 315
317 317 317 318 318 319 320 320 319 318 316 317 320 321 319 320 320 319 318 318 317 317
316 316 316 318 319 318 318 319 319 319 320 320 319 318 318 319 319 320 320 320 319 319
304 306 308 312 315 318 318 318 318 318 318 319 319 318 318 317 316 317 319 321 320 321
297 299 300 302 303 304 304 305 312 314 314 313 307 290 292 300 316 317 317 318 319 320
293 294 294 296 297 297 299 301 302 300 300 296 290 288 290 290 299 308 313 314 315 316
291 291 292 294 295 295 298 297 293 292 290 291 288 287 288 288 296 301 306 310 312 311
289 289 290 290 291 293 294 292 288 287 286 287 286 286 286 288 295 298 299 290 288 287
286 287 287 287 289 289 289 287 286 285 285 285 285 285 285 288 293 292 288 285 284 285
284 285 286 286 287 287 286 285 284 284 284 284 283 284 284 284 284 283 281 281 280 281

GFSNIL_sfc_thetae_081.txt.gz
Theta_e
329 327 328 328 326 325 323 323 321 320 320 319 321 322 324 325 326 326 326 325 325 324
327 326 326 327 327 327 327 326 325 321 319 318 318 319 320 321 322 325 325 324 325 323
326 326 327 327 326 324 325 325 326 324 321 318 317 318 317 317 317 317 318 319 318 319
324 325 326 325 325 324 325 324 323 324 322 320 318 317 316 317 315 314 315 316 317 316
323 323 324 323 324 325 323 323 322 322 322 321 320 319 318 316 316 314 314 314 314 314
322 323 322 322 322 323 322 321 321 322 322 322 322 321 319 318 318 317 315 316 314 315
316 321 321 322 323 323 323 320 320 320 321 321 320 316 317 320 319 319 320 321 321 319
303 304 305 306 311 315 311 310 310 316 305 299 296 292 295 305 316 321 321 324 322 322
299 300 300 301 303 300 299 299 300 295 294 292 291 288 289 292 308 314 312 312 307 310
298 298 299 299 297 295 293 293 292 292 290 287 287 287 289 289 300 298 293 292 292 296
297 297 298 297 294 293 291 290 290 290 289 287 286 287 288 289 294 290 287 286 288 288
294 295 295 294 293 293 292 290 289 289 289 287 285 286 288 293 291 288 286 285 285 286
291 292 291 292 292 292 292 290 290 288 288 287 285 285 287 290 288 285 284 284 284 283
289 289 290 291 292 291 291 290 289 287 287 286 285 283 284 287 288 286 285 283 282 283